Location: Arcusa
(42.3167°N, 0.0833°W)
Time: 19:26:08
(UTC+00:00)

SL-16 R/B - Pass Details

Date: 25 January 2020
Orbit: 842 x 846 km, 71.0° (Epoch: 21 February)

Event Time Altitude Azimuth Distance (km) Brightness Sun altitude
Rises 04:58:57 0° 189° (S) 3,385 5.3 -26.1°
Reaches altitude 10° 05:01:25 10° 185° (S) 2,455 4.6 -25.7°
Maximum altitude 05:06:54 54° 109° (ESE) 1,014 2.9 -24.7°
Drops below altitude 10° 05:12:25 10° 33° (NNE) 2,473 5.0 -23.7°
Sets 05:14:54 0° 29° (NNE) 3,413 5.7 -23.2°
